Regional Weather Roundup
Issued by NWS Columbia, SC

Home | Current Version | Previous Version | Text Only | Print | Product List | Glossary On
Versions: 1 2 3 4 5 6 7 8 9 10 11 12 13 14 15 16 17 18 19 20 21 22 23 24 25 26 27
000
ASUS42 KCAE 190410
RWRCAE
REGIONAL WEATHER ROUNDUP
NATIONAL WEATHER SERVICE COLUMBIA SC
1200 AM EDT THU OCT 19 2017

NOTE: "FAIR" INDICATES FEW OR NO CLOUDS BELOW 12,000 FEET WITH NO
SIGNIFICANT WEATHER AND/OR OBSTRUCTIONS TO VISIBILITY.

NOT ALL STATIONS ARE QUALITY CONTROLLED BY THE NATIONAL
WEATHER SERVICE. USE DATA WITH CAUTION...ESPECIALLY
DEWPOINT OBSERVATIONS.

SCZ001>056-GAZ040-063>065-077-190500-
...UPSTATE SOUTH CAROLINA...

CITY           SKY/WX    TMP DP  RH WIND       PRES   REMARKS
ANDERSON       CLEAR     49  45  86 CALM      30.32S
LIBERTY        CLEAR     44  44 100 CALM      30.32F
SPARTANBURG    CLEAR     46  43  87 CALM      30.32S
CLEMSON        CLEAR     52  50  93 N5        30.33F
GREENVILLE     CLEAR     55  43  63 VRB3      30.34R
GREENWOOD      CLEAR     45  44  97 CALM      30.33S
GREER          CLEAR     48  46  93 CALM      30.33S
ROCK HILL      CLEAR     44  43  96 CALM      30.33S
CHESTER        CLEAR     48  37  66 CALM      30.33S
LAURENS        CLEAR     43  41  93 NE5       30.32S


...CENTRAL SOUTH CAROLINA...

CITY           SKY/WX    TMP DP  RH WIND       PRES   REMARKS
COLUMBIA APT   CLEAR     49  46  90 W3        30.30S
MCENTIRE ANGB  CLEAR     47  44  90 CALM      30.30F
ORANGEBURG     CLEAR     50  47  89 CALM      30.29F
SUMTER SHAW    CLEAR     53  41  63 NE6       30.28S
NEWBERRY       CLEAR     46  41  81 CALM      30.34S
AIKEN          FAIR      45  41  87 CALM      30.33F
BARNWELL         N/A     52  46  82 CALM      30.29F
MANNING        FOG       50  50 100 MISG      30.29F VSB<1/4
CAMDEN         CLOUDY    48  43  81 CALM      30.31F
LANCASTER      CLEAR     45  41  87 CALM      30.32F
WINNSBORO      CLEAR     52  39  62 E6        30.30F


...EASTERN AND COASTAL SOUTH CAROLINA...

CITY           SKY/WX    TMP DP  RH WIND       PRES   REMARKS
MYRTLE BEACH   CLEAR     59  54  83 N6        30.29
N MYRTLE BCH   CLEAR     58  54  86 N6        30.27F
CONWAY         FAIR      54  54 100 CALM      30.28F
MARION         FAIR     N/A N/A N/A CALM      30.29F
HARTSVILLE     FAIR      54  41  62 CALM      30.30F
FLORENCE       CLEAR     54  47  77 NE6       30.29F
DARLINGTON     CLEAR     48  45  89 N3        30.31F
CHARLESTON APT CLEAR     59  56  89 N6        30.26F
MOUNT PLEASANT FAIR      63  57  82 N5        30.26F
WALTERBORO     CLEAR     52  52 100 CALM      30.29S
BEAUFORT       CLEAR     62  58  86 MISG      30.26F


...EASTERN GEORGIA...

CITY           SKY/WX    TMP DP  RH WIND       PRES   REMARKS
AUGUSTA BUSH F CLEAR     48  45  89 CALM      30.29F
AUGUSTA DANIEL CLEAR     61  38  42 NE6       30.30F
THOMSON        CLEAR     45  42  90 CALM      30.35S
WASHINGTON     FAIR      48  45  87 CALM      30.31S
CLAXTON        FAIR      57  56  95 CALM      30.27F
SYLVANIA       CLEAR     58  51  78 E5        30.29F
STATESBORO     CLEAR     59  49  69 CALM      30.28S
SAVANNAH       CLEAR     59  56  89 N7        30.26F


...SOUTHERN NORTH CAROLINA...

CITY           SKY/WX    TMP DP  RH WIND       PRES   REMARKS
CHARLOTTE      PTCLDY    46  45  96 CALM      30.33S
MONROE         CLEAR     46  40  79 CALM      30.31F
WADESBORO      CLEAR     42  39  87 CALM      30.32S
RUTHERFORDTON  CLEAR     47  47 100 NW3       30.35S
ASHEVILLE      CLEAR     47  43  86 CALM      30.36S

$$




USA.gov is the U.S. government's official web portal to all federal, state and local government web resources and services.